[[{"header":{"parameterUnit":"m.s-1","parameterCategory":1,"la1":30.2992,"la2":30.254,"lo1":-89.0895,"lo2":-89.0443,"dy":0.0025,"dx":0.0025,"nx":19,"ny":19,"refTime":"2026-05-19T03:00:00:Z","depth":0,"parameterNumber":2,"parameterNumberName":"U-component_of_WINDS"},"data":[0,0,0,-3.6759,-3.6762,-3.6923,-3.6923,-3.7124,-3.7126,0,0,0,0,0,0,0,0,0,0,0,-3.6709,-3.671,-3.6759,-3.6763,-3.6923,-3.6923,-3.7124,-3.7126,0,0,0,0,0,0,0,0,0,0,0,-3.6708,-3.671,-3.6712,-3.6763,-3.6922,-3.6923,-3.7123,-3.7004,0,0,0,0,0,0,0,0,0,0,-3.6849,-3.68,-3.671,-3.6712,-3.6764,-3.6922,-3.6923,-3.6998,-3.7011,-3.705,0,-3.7083,0,-3.7108,-3.7139,-3.714,0,0,0,-3.6764,-3.6789,-3.6835,-3.6712,-3.6765,-3.6922,-3.6851,-3.7005,-3.702,-3.7067,-3.7086,-3.7094,-3.7111,-3.714,-3.7141,-3.7358,-3.7359,0,0,-3.6755,-3.6736,-3.6825,-3.6844,-3.682,-3.6846,-3.6856,-3.7014,-3.7034,-3.7087,-3.7099,-3.7114,-3.7141,-3.7143,-3.7357,-3.7358,0,0,0,-3.6729,-3.673,-3.6772,-3.6836,-3.6865,-3.685,-3.6862,-3.7027,-3.7042,-3.7101,-3.7117,-3.7143,-3.7145,-3.7356,-3.7357,-3.7384,0,0,0,-3.6724,-3.6715,-3.6768,-3.6758,-3.6862,-3.6948,-3.6871,-3.7031,-3.705,-3.7116,-3.7143,-3.7147,-3.7355,-3.7357,-3.7381,-3.7399,0,0,0,-3.6699,-3.6712,-3.6734,-3.6756,-3.6825,-3.6946,-3.6971,-3.7036,-3.7059,-3.714,-3.7147,-3.7354,-3.7356,-3.7378,-3.7394,-3.7449,0,0,0,-3.6668,-3.6756,-3.6734,-3.6839,-3.6823,-3.6962,-3.697,-3.7074,-3.7146,-3.7144,-3.7355,-3.7357,-3.7377,-3.7392,-3.7446,-3.7489,-3.7506,0,0,-3.6768,-3.6767,-3.683,-3.6816,-3.6953,-3.6939,-3.7081,-3.7165,-3.719,-3.73,-3.7306,-3.7382,-3.7394,-3.7448,-3.7613,-3.7626,0,0,0,-3.6856,-3.69,-3.6941,-3.7009,-3.7076,-3.7135,-3.7199,-3.7231,-3.7325,-3.7243,-3.7418,-3.7426,-3.7459,-3.748,-3.7491,-3.752,-3.7367,-3.7367,-3.7367,-3.6968,-3.6996,-3.7103,-3.715,-3.7216,-3.7283,-3.7339,-3.7392,-3.7401,-3.7442,-3.7474,-3.757,-3.7595,-3.7604,-3.7633,-3.7502,-3.7502,-3.7502,-3.7502,-3.7116,-3.7183,-3.7194,-3.7301,-3.733,-3.742,-3.7488,-3.7492,-3.7579,-3.7549,-3.7579,-3.754,-3.7617,-3.7644,-3.7504,-3.7504,-3.7504,-3.7503,-3.7503,-3.719,-3.7227,-3.7265,-3.7366,-3.7442,-3.7488,-3.7572,-3.7596,-3.762,-3.765,-3.7685,-3.7685,-3.7686,-3.7666,-3.7666,-3.7667,-3.7667,-3.7667,-3.7667,-3.7251,-3.7293,-3.736,-3.744,-3.7487,-3.7553,-3.7622,-3.7669,-3.7727,-3.7738,-3.7739,-3.7742,-3.7621,-3.7588,-3.7672,-3.7672,-3.7671,-3.767,-3.767,-3.7385,-3.7359,-3.7463,-3.7511,-3.7606,-3.7679,-3.7711,-3.7805,-3.7848,-3.7888,-3.7887,-3.7794,-3.7794,-3.7785,-3.7758,-3.7882,-3.7882,-3.7882,-3.7882,-3.7446,-3.745,-3.7562,-3.7636,-3.7711,-3.7751,-3.7867,-3.7922,-3.7975,-3.8004,-3.799,-3.7958,-3.7948,-3.7954,-3.7941,-3.7916,-3.8077,-3.8077,-3.8077,-3.7529,-3.7542,-3.7635,-3.7687,-3.7765,-3.783,-3.794,-3.8024,-3.808,-3.8086,-3.8026,-3.8017,-3.7965,-3.7947,-3.7948,-3.7928,-3.7883,0,0]},{"header":{"parameterUnit":"m.s-1","parameterCategory":1,"la1":30.2992,"la2":30.254,"lo1":-89.0895,"lo2":-89.0443,"dy":0.0025,"dx":0.0025,"nx":19,"ny":19,"refTime":"2026-05-19T03:00:00:Z","depth":0,"parameterNumber":3,"parameterNumberName":"V-component_of_WINDS"},"data":[0,0,0,3.305,3.3052,3.3139,3.3139,3.3252,3.3253,0,0,0,0,0,0,0,0,0,0,0,3.3026,3.3027,3.3049,3.3052,3.3139,3.3139,3.3251,3.3253,0,0,0,0,0,0,0,0,0,0,0,3.3026,3.3027,3.3028,3.3052,3.3138,3.3139,3.3251,3.3185,0,0,0,0,0,0,0,0,0,0,3.31,3.3081,3.3027,3.3028,3.3053,3.3138,3.3139,3.3181,3.3189,3.3213,0,3.3237,0,3.3247,3.326,3.3261,0,0,0,3.3049,3.3075,3.3096,3.3028,3.3053,3.3138,3.3099,3.3186,3.3194,3.3223,3.3239,3.3243,3.3249,3.3261,3.3262,3.3416,3.3417,0,0,3.3045,3.3042,3.3091,3.3102,3.309,3.3096,3.3101,3.3191,3.3207,3.3239,3.3245,3.3251,3.3262,3.3263,3.3415,3.3416,0,0,0,3.3032,3.3039,3.3059,3.3097,3.3113,3.3099,3.3105,3.3203,3.3209,3.3247,3.3252,3.3263,3.3264,3.3414,3.3416,3.3456,0,0,0,3.3029,3.3032,3.3057,3.3056,3.3111,3.3159,3.3115,3.3203,3.3213,3.3251,3.3263,3.3265,3.3413,3.3415,3.3453,3.3475,0,0,0,3.302,3.3031,3.3045,3.3056,3.3093,3.3158,3.3169,3.3205,3.3217,3.3261,3.3266,3.3413,3.3415,3.345,3.347,3.3516,0,0,0,3.3008,3.3077,3.3045,3.3124,3.3093,3.3182,3.3169,3.3235,3.3278,3.3263,3.3413,3.3415,3.3449,3.3468,3.3513,3.3555,3.3572,0,0,3.3094,3.3087,3.3134,3.3108,3.3203,3.3169,3.327,3.331,3.3315,3.3382,3.3385,3.3454,3.347,3.3515,3.3666,3.368,0,0,0,3.3161,3.3194,3.322,3.3262,3.3296,3.3327,3.3352,3.3367,3.3424,3.3349,3.3482,3.3492,3.3519,3.3538,3.355,3.3573,3.3424,3.3424,3.3424,3.3278,3.3283,3.3362,3.3378,3.3418,3.3445,3.3478,3.3503,3.3494,3.3525,3.3545,3.3637,3.366,3.3669,3.3693,3.3567,3.3567,3.3567,3.3567,3.3405,3.3454,3.3443,3.3516,3.352,3.358,3.3609,3.3601,3.3657,3.3621,3.3645,3.3606,3.3683,3.3705,3.357,3.357,3.357,3.3569,3.3569,3.3483,3.3508,3.3527,3.3589,3.3637,3.365,3.3705,3.3707,3.3708,3.3732,3.3754,3.3753,3.3753,3.3742,3.3742,3.3743,3.3743,3.3743,3.3743,3.3557,3.3577,3.3625,3.3668,3.3697,3.3734,3.3762,3.3789,3.382,3.3816,3.3817,3.3805,3.369,3.3661,3.3748,3.3747,3.3747,3.3746,3.3746,3.3685,3.3657,3.373,3.3759,3.3811,3.3859,3.3861,3.3916,3.3939,3.3967,3.3951,3.3865,3.3858,3.3849,3.3825,3.3949,3.3949,3.3949,3.3949,3.3752,3.3749,3.3826,3.3871,3.3916,3.3926,3.4009,3.4032,3.4051,3.4066,3.4048,3.4016,3.4007,3.4005,3.3993,3.3971,3.4129,3.4129,3.413,3.3831,3.3833,3.3904,3.3924,3.3966,3.4001,3.4079,3.4131,3.4147,3.4137,3.4077,3.407,3.4019,3.4002,3.399,3.3971,3.3931,0,0]}]]